VTD146 UWLL-UWLL

Flight info

Callsign VTD146
Flight time 0h 13m
Altitude 1500
Route RA/A015
Aircraft DA42/L-SDEFGRY/C

Departure

Time 2026-05-06 12:25
Airport Ulyanovsk Baratayevka Airport (UWLL)

Arrival

Time 2026-05-06 12:38
Airport Ulyanovsk Baratayevka Airport (UWLL)
Time Latitude Longitude Altitude Speed Heading
2026-05-06 11:58 54.27148 48.23669 415 ft 0 kts 207°
2026-05-06 12:13 54.27133 48.23666 415 ft 7 kts 127°
2026-05-06 12:13 54.27164 48.23672 415 ft 11 kts 298°
2026-05-06 12:14 54.27203 48.23602 415 ft 9 kts 32°
2026-05-06 12:14 54.27287 48.23694 412 ft 19 kts 32°
2026-05-06 12:14 54.27397 48.23813 407 ft 19 kts 31°
2026-05-06 12:14 54.27509 48.23932 401 ft 19 kts 32°
2026-05-06 12:15 54.27594 48.23972 395 ft 12 kts 299°
2026-05-06 12:15 54.27655 48.23801 394 ft 20 kts 302°
2026-05-06 12:15 54.27677 48.23593 396 ft 18 kts 258°
2026-05-06 12:15 54.27666 48.23504 399 ft 0 kts 259°
2026-05-06 12:17 54.27666 48.23503 399 ft 1 kts 258°
2026-05-06 12:18 54.27653 48.23392 403 ft 17 kts 258°
2026-05-06 12:18 54.27628 48.23217 409 ft 10 kts 226°
2026-05-06 12:18 54.27619 48.23204 409 ft 0 kts 213°
2026-05-06 12:19 54.27447 48.23021 413 ft 60 kts 212°
2026-05-06 12:19 54.27080 48.22626 419 ft 25 kts 212°
2026-05-06 12:19 54.27009 48.22540 418 ft 9 kts 133°
2026-05-06 12:19 54.27063 48.22607 422 ft 16 kts 30°
2026-05-06 12:20 54.27113 48.22734 419 ft 12 kts 126°
2026-05-06 12:20 54.27051 48.22772 417 ft 11 kts 168°
2026-05-06 12:20 54.26997 48.22792 419 ft 0 kts 168°
2026-05-06 12:20 54.26949 48.22811 425 ft 15 kts 163°
2026-05-06 12:21 54.26935 48.22908 423 ft 14 kts 33°
2026-05-06 12:21 54.27036 48.23017 423 ft 18 kts 32°
2026-05-06 12:21 54.27147 48.23135 417 ft 20 kts 32°
2026-05-06 12:21 54.27272 48.23269 417 ft 21 kts 32°
2026-05-06 12:22 54.27394 48.23400 414 ft 20 kts 32°
2026-05-06 12:22 54.27515 48.23531 404 ft 22 kts 32°
2026-05-06 12:22 54.27632 48.23654 397 ft 14 kts 28°
2026-05-06 12:22 54.27674 48.23567 397 ft 15 kts 258°
2026-05-06 12:23 54.27666 48.23503 399 ft 0 kts 259°
2026-05-06 12:23 54.27659 48.23439 401 ft 15 kts 255°
2026-05-06 12:23 54.27645 48.23252 407 ft 12 kts 260°
2026-05-06 12:23 54.27630 48.23216 409 ft 0 kts 213°
2026-05-06 12:24 54.27599 48.23181 411 ft 27 kts 212°
2026-05-06 12:24 54.27265 48.22824 415 ft 82 kts 212°
2026-05-06 12:24 54.26728 48.22233 615 ft 97 kts 211°
2026-05-06 12:24 54.26172 48.21603 998 ft 94 kts 211°
2026-05-06 12:25 54.25604 48.21024 1339 ft 96 kts 206°
2026-05-06 12:25 54.25021 48.20428 1532 ft 104 kts 213°
2026-05-06 12:25 54.24685 48.19271 1537 ft 119 kts 266°
2026-05-06 12:25 54.24986 48.17954 1590 ft 123 kts 300°
2026-05-06 12:26 54.25463 48.16678 1523 ft 130 kts 302°
2026-05-06 12:26 54.26245 48.15884 1462 ft 135 kts 349°
2026-05-06 12:26 54.27156 48.16118 1521 ft 133 kts 25°
2026-05-06 12:26 54.27955 48.16980 1484 ft 140 kts 36°
2026-05-06 12:27 54.28734 48.17935 1447 ft 137 kts 35°
2026-05-06 12:27 54.29518 48.18847 1413 ft 137 kts 33°
2026-05-06 12:27 54.30292 48.19746 1460 ft 131 kts 34°
2026-05-06 12:27 54.31030 48.20620 1547 ft 129 kts 30°
2026-05-06 12:28 54.31550 48.21164 1546 ft 133 kts 30°
2026-05-06 12:28 54.32348 48.22014 1549 ft 134 kts 40°
2026-05-06 12:28 54.32769 48.23400 1432 ft 137 kts 85°
2026-05-06 12:28 54.32477 48.24869 1390 ft 131 kts 126°
2026-05-06 12:29 54.31960 48.26074 1299 ft 121 kts 124°
2026-05-06 12:29 54.31369 48.26929 1210 ft 110 kts 166°
2026-05-06 12:29 54.30653 48.26511 1024 ft 113 kts 213°
2026-05-06 12:29 54.30061 48.25817 853 ft 94 kts 204°
2026-05-06 12:30 54.29522 48.25250 725 ft 88 kts 206°
2026-05-06 12:30 54.29008 48.24699 613 ft 88 kts 205°
2026-05-06 12:30 54.28495 48.24132 543 ft 84 kts 210°
2026-05-06 12:30 54.28002 48.23581 567 ft 84 kts 206°
2026-05-06 12:31 54.27496 48.23031 656 ft 88 kts 207°
2026-05-06 12:31 54.26986 48.22454 818 ft 87 kts 205°
2026-05-06 12:31 54.26491 48.21883 960 ft 87 kts 206°
2026-05-06 12:31 54.25978 48.21309 1035 ft 88 kts 204°
2026-05-06 12:32 54.25457 48.20751 1155 ft 89 kts 205°
2026-05-06 12:32 54.24937 48.20141 1137 ft 93 kts 218°
2026-05-06 12:32 54.24689 48.19130 1216 ft 98 kts 274°
2026-05-06 12:32 54.24951 48.18076 1340 ft 95 kts 293°
2026-05-06 12:33 54.25338 48.17166 1376 ft 96 kts 303°
2026-05-06 12:33 54.25948 48.16753 1404 ft 103 kts
2026-05-06 12:33 54.26668 48.17066 1456 ft 106 kts 24°
2026-05-06 12:33 54.27311 48.17695 1489 ft 115 kts 26°
2026-05-06 12:34 54.28084 48.18446 1435 ft 139 kts 34°
2026-05-06 12:34 54.28902 48.19341 1481 ft 140 kts 34°
2026-05-06 12:34 54.29732 48.20235 1478 ft 142 kts 34°
2026-05-06 12:34 54.30564 48.21132 1486 ft 143 kts 35°
2026-05-06 12:35 54.31415 48.22060 1504 ft 146 kts 34°
2026-05-06 12:35 54.32257 48.23067 1456 ft 148 kts 49°
2026-05-06 12:35 54.32550 48.24639 1386 ft 139 kts 103°
2026-05-06 12:35 54.32128 48.26037 1344 ft 131 kts 125°
2026-05-06 12:36 54.31520 48.27052 1237 ft 116 kts 160°
2026-05-06 12:36 54.30808 48.26806 1140 ft 110 kts 216°
2026-05-06 12:36 54.30255 48.26030 959 ft 95 kts 212°
2026-05-06 12:36 54.29693 48.25434 795 ft 96 kts 208°
2026-05-06 12:37 54.29124 48.24833 631 ft 96 kts 210°
2026-05-06 12:37 54.28572 48.24239 491 ft 90 kts 206°
2026-05-06 12:37 54.28053 48.23673 397 ft 85 kts 207°
2026-05-06 12:37 54.27643 48.23231 408 ft 51 kts 212°
2026-05-06 12:38 54.27400 48.22970 414 ft 34 kts 212°
2026-05-06 12:38 54.27232 48.22794 415 ft 20 kts 212°
2026-05-06 12:38 54.27127 48.22747 418 ft 13 kts 175°
2026-05-06 12:38 54.27030 48.22778 419 ft 17 kts 167°
2026-05-06 12:39 54.26943 48.22814 425 ft 17 kts 161°
2026-05-06 12:39 54.26945 48.22919 425 ft 15 kts 30°
2026-05-06 12:39 54.27026 48.23036 420 ft 12 kts 101°
2026-05-06 12:39 54.26973 48.23188 418 ft 14 kts 121°
2026-05-06 12:40 54.26939 48.23296 421 ft 9 kts 89°
2026-05-06 12:40 54.26994 48.23377 414 ft 17 kts 33°
2026-05-06 12:40 54.27105 48.23495 418 ft 15 kts 30°
2026-05-06 12:40 54.27158 48.23556 417 ft 6 kts 40°
2026-05-06 12:41 54.27146 48.23632 416 ft 7 kts 73°
2026-05-06 12:41 54.27156 48.23649 416 ft 0 kts 33°
2026-05-06 12:55 54.27171 48.23650 412 ft 3 kts 304°
2026-05-06 12:55 54.27197 48.23598 416 ft 7 kts 359°
2026-05-06 12:55 54.27257 48.23662 413 ft 13 kts 32°
2026-05-06 12:55 54.27352 48.23764 409 ft 18 kts 32°
2026-05-06 12:56 54.27459 48.23879 404 ft 18 kts 32°
2026-05-06 12:56 54.27559 48.23985 397 ft 14 kts 27°
2026-05-06 12:56 54.27621 48.23896 394 ft 16 kts 302°
2026-05-06 12:56 54.27675 48.23743 394 ft 16 kts 289°
2026-05-06 12:57 54.27672 48.23547 398 ft 12 kts 258°
2026-05-06 12:57 54.27666 48.23504 399 ft 0 kts 257°
2026-05-06 12:58 54.27665 48.23497 399 ft 4 kts 257°
2026-05-06 12:58 54.27648 48.23347 404 ft 18 kts 261°
2026-05-06 12:59 54.27627 48.23211 409 ft 6 kts 217°
2026-05-06 12:59 54.27619 48.23204 409 ft 0 kts 212°
2026-05-06 12:59 54.27450 48.23024 413 ft 60 kts 212°
2026-05-06 13:00 54.27055 48.22603 422 ft 36 kts 214°
2026-05-06 13:00 54.26982 48.22511 424 ft 9 kts 137°
2026-05-06 13:00 54.27039 48.22580 423 ft 14 kts 33°
2026-05-06 13:00 54.27110 48.22666 418 ft 11 kts 51°
2026-05-06 13:01 54.27096 48.22753 419 ft 7 kts 155°
2026-05-06 13:01 54.27036 48.22777 418 ft 14 kts 167°
2026-05-06 13:01 54.26996 48.22792 419 ft 3 kts 167°
2026-05-06 13:01 54.26936 48.22817 425 ft 10 kts 161°
2026-05-06 13:02 54.26934 48.22907 423 ft 14 kts 31°
2026-05-06 13:02 54.27037 48.23017 423 ft 19 kts 31°
2026-05-06 13:02 54.27147 48.23136 417 ft 19 kts 32°
2026-05-06 13:02 54.27269 48.23266 417 ft 21 kts 32°
2026-05-06 13:03 54.27394 48.23401 414 ft 21 kts 32°
2026-05-06 13:03 54.27511 48.23523 405 ft 19 kts 34°
2026-05-06 13:03 54.27617 48.23640 397 ft 16 kts 31°
2026-05-06 13:03 54.27677 48.23598 396 ft 14 kts 265°
2026-05-06 13:04 54.27666 48.23506 399 ft 0 kts 258°
2026-05-06 13:04 54.27662 48.23474 400 ft 12 kts 259°
2026-05-06 13:04 54.27643 48.23273 407 ft 15 kts 264°
2026-05-06 13:04 54.27619 48.23204 409 ft 0 kts 213°
2026-05-06 13:05 54.27474 48.23049 413 ft 56 kts 212°
2026-05-06 13:05 54.27003 48.22543 461 ft 95 kts 212°
2026-05-06 13:05 54.26448 48.21900 773 ft 99 kts 213°
2026-05-06 13:06 54.25881 48.21237 1145 ft 97 kts 212°
2026-05-06 13:06 54.25324 48.20610 1504 ft 95 kts 208°
2026-05-06 13:06 54.24768 48.19727 1516 ft 124 kts 237°
2026-05-06 13:06 54.24652 48.18234 1511 ft 129 kts 279°
2026-05-06 13:07 54.25063 48.16888 1542 ft 130 kts 301°
2026-05-06 13:07 54.25756 48.15884 1485 ft 136 kts 345°
2026-05-06 13:07 54.26675 48.16211 1498 ft 139 kts 30°
2026-05-06 13:07 54.27503 48.17125 1492 ft 144 kts 34°
2026-05-06 13:08 54.28348 48.18031 1461 ft 141 kts 36°
2026-05-06 13:08 54.29125 48.18960 1462 ft 138 kts 36°
2026-05-06 13:08 54.29925 48.19862 1444 ft 136 kts 32°
2026-05-06 13:08 54.30728 48.20707 1474 ft 135 kts 33°
2026-05-06 13:09 54.31535 48.21560 1514 ft 136 kts 30°
2026-05-06 13:09 54.32306 48.22518 1484 ft 137 kts 49°
2026-05-06 13:09 54.32640 48.23954 1454 ft 132 kts 95°
2026-05-06 13:09 54.32283 48.25356 1435 ft 126 kts 123°
2026-05-06 13:10 54.31799 48.26454 1386 ft 109 kts 149°
2026-05-06 13:10 54.31079 48.26639 1258 ft 106 kts 187°
2026-05-06 13:10 54.30441 48.26204 1103 ft 96 kts 207°
2026-05-06 13:10 54.29887 48.25632 902 ft 90 kts 208°
2026-05-06 13:11 54.29363 48.25064 744 ft 90 kts 209°
2026-05-06 13:11 54.28838 48.24507 603 ft 87 kts 209°
2026-05-06 13:11 54.28332 48.23947 549 ft 84 kts 219°
2026-05-06 13:11 54.27849 48.23448 667 ft 83 kts 214°
2026-05-06 13:12 54.27336 48.22878 768 ft 89 kts 212°
2026-05-06 13:12 54.26801 48.22278 817 ft 98 kts 210°
2026-05-06 13:12 54.26212 48.21642 869 ft 103 kts 209°
2026-05-06 13:12 54.25608 48.20999 961 ft 100 kts 207°
2026-05-06 13:13 54.25039 48.20378 1109 ft 95 kts 210°
2026-05-06 13:13 54.24619 48.19522 1162 ft 94 kts 251°
2026-05-06 13:13 54.24572 48.18797 1233 ft 92 kts 281°
2026-05-06 13:13 54.24860 48.17833 1307 ft 94 kts 305°
2026-05-06 13:14 54.25396 48.16617 1347 ft 100 kts 316°
2026-05-06 13:14 54.26055 48.16292 1424 ft 102 kts
2026-05-06 13:14 54.26761 48.16637 1450 ft 108 kts 35°
2026-05-06 13:14 54.27181 48.17131 1492 ft 109 kts 43°
2026-05-06 13:15 54.27820 48.17919 1472 ft 122 kts 35°
2026-05-06 13:15 54.28570 48.18727 1401 ft 134 kts 33°
2026-05-06 13:15 54.29368 48.19543 1475 ft 134 kts 31°
2026-05-06 13:15 54.30183 48.20333 1521 ft 135 kts 31°
2026-05-06 13:16 54.31021 48.21162 1507 ft 143 kts 32°
2026-05-06 13:16 54.31876 48.22063 1517 ft 145 kts 33°
2026-05-06 13:16 54.32501 48.23339 1484 ft 139 kts 75°
2026-05-06 13:16 54.32410 48.24893 1381 ft 131 kts 121°
2026-05-06 13:17 54.31955 48.26171 1269 ft 115 kts 123°
2026-05-06 13:17 54.31361 48.26894 1161 ft 106 kts 176°
2026-05-06 13:17 54.30660 48.26541 1054 ft 105 kts 207°
2026-05-06 13:17 54.30075 48.25872 886 ft 100 kts 212°
2026-05-06 13:18 54.29495 48.25248 720 ft 96 kts 213°
2026-05-06 13:18 54.28938 48.24628 596 ft 95 kts 212°
2026-05-06 13:18 54.28391 48.24038 450 ft 90 kts 212°
2026-05-06 13:18 54.27886 48.23494 393 ft 79 kts 211°
2026-05-06 13:19 54.27550 48.23134 412 ft 39 kts 212°
2026-05-06 13:19 54.27369 48.22938 413 ft 25 kts 213°
2026-05-06 13:19 54.27222 48.22779 415 ft 23 kts 211°
2026-05-06 13:19 54.27078 48.22760 414 ft 21 kts 168°
2026-05-06 13:20 54.26986 48.22797 424 ft 5 kts 168°
2026-05-06 13:20 54.26919 48.22836 426 ft 9 kts 123°
2026-05-06 13:20 54.26969 48.22944 425 ft 18 kts 33°
2026-05-06 13:20 54.27072 48.23054 422 ft 18 kts 33°
2026-05-06 13:21 54.27185 48.23176 419 ft 20 kts 33°
2026-05-06 13:21 54.27306 48.23306 416 ft 20 kts 31°
2026-05-06 13:21 54.27425 48.23434 412 ft 21 kts 32°
2026-05-06 13:21 54.27551 48.23568 401 ft 21 kts 32°
2026-05-06 13:22 54.27652 48.23666 396 ft 12 kts 359°
2026-05-06 13:22 54.27670 48.23531 398 ft 9 kts 256°
2026-05-06 13:22 54.27666 48.23507 399 ft 0 kts 258°
2026-05-06 13:22 54.27665 48.23498 399 ft 5 kts 257°
2026-05-06 13:23 54.27648 48.23344 404 ft 17 kts 263°
2026-05-06 13:23 54.27624 48.23210 409 ft 8 kts 212°
2026-05-06 13:23 54.27619 48.23204 409 ft 0 kts 213°
2026-05-06 13:23 54.27612 48.23197 410 ft 13 kts 212°
2026-05-06 13:24 54.27347 48.22912 413 ft 73 kts 212°
2026-05-06 13:24 54.26827 48.22364 562 ft 94 kts 211°
2026-05-06 13:24 54.26272 48.21740 907 ft 97 kts 214°
2026-05-06 13:24 54.25738 48.21062 1248 ft 95 kts 212°
2026-05-06 13:25 54.25191 48.20432 1504 ft 102 kts 210°
2026-05-06 13:25 54.24774 48.19293 1528 ft 125 kts 259°
2026-05-06 13:25 54.24966 48.17836 1507 ft 130 kts 298°
2026-05-06 13:25 54.25471 48.16546 1503 ft 131 kts 310°
2026-05-06 13:26 54.26292 48.16007 1545 ft 135 kts
2026-05-06 13:26 54.27174 48.16634 1493 ft 143 kts 33°
2026-05-06 13:26 54.28007 48.17568 1485 ft 140 kts 34°
2026-05-06 13:26 54.28779 48.18524 1488 ft 135 kts 34°
2026-05-06 13:27 54.29568 48.19404 1452 ft 135 kts 30°
2026-05-06 13:27 54.30349 48.20235 1463 ft 132 kts 30°
2026-05-06 13:27 54.31118 48.21146 1467 ft 135 kts 35°
2026-05-06 13:27 54.31897 48.22047 1450 ft 136 kts 34°
2026-05-06 13:28 54.32417 48.23342 1374 ft 134 kts 80°
2026-05-06 13:28 54.32178 48.24791 1334 ft 128 kts 123°
2026-05-06 13:28 54.31710 48.26037 1271 ft 114 kts 123°
2026-05-06 13:28 54.31067 48.26624 1133 ft 107 kts 174°
2026-05-06 13:29 54.30393 48.26181 973 ft 104 kts 208°
2026-05-06 13:29 54.29838 48.25584 825 ft 90 kts 203°
2026-05-06 13:29 54.29323 48.25024 692 ft 87 kts 208°
2026-05-06 13:29 54.28809 48.24477 552 ft 89 kts 206°
2026-05-06 13:30 54.28288 48.23924 429 ft 88 kts 206°
2026-05-06 13:30 54.27802 48.23408 398 ft 72 kts 208°
2026-05-06 13:30 54.27522 48.23103 412 ft 31 kts 211°
2026-05-06 13:30 54.27370 48.22940 413 ft 22 kts 213°
2026-05-06 13:31 54.27260 48.22820 415 ft 16 kts 212°
2026-05-06 13:31 54.27151 48.22744 417 ft 19 kts 182°
2026-05-06 13:31 54.27026 48.22781 423 ft 14 kts 168°
2026-05-06 13:31 54.26970 48.22802 421 ft 1 kts 163°
2026-05-06 13:32 54.26918 48.22853 426 ft 12 kts 110°
2026-05-06 13:32 54.26993 48.22969 424 ft 19 kts 27°
2026-05-06 13:32 54.27007 48.23097 416 ft 15 kts 122°
2026-05-06 13:32 54.26955 48.23235 421 ft 13 kts 123°
2026-05-06 13:33 54.26958 48.23339 417 ft 10 kts 31°
2026-05-06 13:33 54.27036 48.23423 419 ft 14 kts 32°
2026-05-06 13:33 54.27122 48.23515 417 ft 15 kts 31°
2026-05-06 13:33 54.27162 48.23585 411 ft 7 kts 115°
2026-05-06 13:34 54.27153 48.23616 416 ft 0 kts 47°
2026-05-06 13:34 54.27162 48.23627 416 ft 1 kts 33°
2026-05-06 13:34 54.27164 48.23628 416 ft 0 kts 33°